Regional Weather Roundup
Issued by NWS Burlington, VT

Home | Current Version | Previous Version | Text Only | Print | Product List | Glossary On
Versions: 1 2 3 4 5 6 7 8 9 10 11 12 13 14 15 16 17 18 19 20 21 22 23 24 25 26 27 28 29 30 31 32 33 34 35 36 37 38 39 40 41 42 43 44 45 46 47 48 49 50
000
ASUS41 KBTV 161430
RWRBTV
VERMONT REGIONAL WEATHER ROUNDUP
NATIONAL WEATHER SERVICE BURLINGTON VT
1000 AM EDT WED AUG 16 2017

NOTE: "FAIR" INDICATES FEW OR NO CLOUDS BELOW 12,000 FEET WITH NO
SIGNIFICANT WEATHER AND/OR OBSTRUCTIONS TO VISIBILITY.

* THESE REPORTS ARE NOT UNDER NWS QUALITY CONTROL AND/OR DO NOT
  REPORT WEATHER SUCH AS PRECIPITATION AND FOG.

VTZ001>019-161500-
_____VERMONT_____


CITY           SKY/WX    TMP DP  RH WIND       PRES   REMARKS
BURLINGTON     MOSUNNY   67  51  56 N9        30.04R
MONTPELIER     CLOUDY    63  58  83 N8        30.06R
MORRISVILLE    SUNNY     64  52  64 N7        30.03R
ST. JOHNSBURY*   N/A     63  53  70 MISG      29.99R
LYNDONVILLE*   FAIR      62  50  63 W5        30.03R
MIDDLEBURY*    PTSUNNY   66  55  66 N12       30.02R
RUTLAND*       PTSUNNY   67  61  81 NW8       30.01R
SPRINGFIELD    PTSUNNY   72  57  59 VRB5      29.99R
HIGHGATE*      FAIR      66  50  56 N8        30.03S
NEWPORT*       FAIR      62  47  59 N13       30.03R
BENNINGTON     PTSUNNY   71  61  70 VRB6      30.00F
SUTTON*          N/A     61 N/A N/A MISG        N/A
ISLAND POND*     N/A     63 N/A N/A NW6         N/A
GALLUP MILLS*    N/A     63 N/A N/A MISG        N/A
UNION VILLAGE*   N/A     70 N/A N/A MISG        N/A
MT. MANSFIELD*   N/A     50 N/A N/A NW21        N/A

_____LAKE CHAMPLAIN_____


CITY           SKY/WX    TMP DP  RH WIND       PRES   REMARKS
BURTON ISLAND*   N/A     68  52  56 NE2         N/A
COLCHESTER RF*   N/A     64  54  68 N12         N/A
DIAMOND ISL*     N/A     64  52  63 N18         N/A

$$

NYZ007-026>031-035-052-083-087-161500-
_____NORTHERN NEW YORK_____


CITY           SKY/WX    TMP DP  RH WIND       PRES   REMARKS
PLATTSBURGH    MOSUNNY   67  52  58 NW7       30.03R
SARANAC LAKE   PTSUNNY   59  54  83 NW5       30.06R
MASSENA        SUNNY     67  52  58 VRB5      30.08R
OGDENSBURG*    FAIR      67  53  59 N7        30.08S
POTSDAM*       SUNNY     64  52  63 NE6       30.08R
STARK FALLS*     N/A     61 N/A N/A N1          N/A
WATERTOWN      SUNNY     66  58  75 N10       30.08R
FT DRUM        MOSUNNY   64  55  71 N9        30.07R
ALBANY         PTSUNNY   74  63  68 NW7       29.99S
GLENS FALLS    CLOUDY    69  61  75 NE9       29.99S

$$
NHZ002-005-011-161500-
_____NEW HAMPSHIRE_____


CITY           SKY/WX    TMP DP  RH WIND       PRES   REMARKS
LEBANON        MOSUNNY   71  62  73 NW7       29.98R
KEENE            N/A    N/A N/A N/A MISG        N/A
MT WASHINGTON  DRZL/FOG  45  45 100 NW52G62     N/A  VSB 0
PLYMOUTH       FAIR      70  60  71 W7        29.97R
WHITEFIELD     CLOUDY    63  54  72 N8        30.00R

$$

_____REGIONAL QUEBEC LOCATIONS_____


CITY           SKY/WX    TMP DP  RH WIND       PRES   REMARKS
MONTREAL       MOSUNNY   66  46  48 NW8       30.03S
QUEBEC CITY    MOSUNNY   63  43  48 NW12G17   29.96S
SHERBROOKE     SUNNY     61  48  63 NW10      30.01R

_____REGIONAL ONTARIO LOCATIONS_____


CITY           SKY/WX    TMP DP  RH WIND       PRES   REMARKS
OTTAWA         MOSUNNY   66  52  59 N8        30.08R

______KEY______
VSB  - VISIBILITY IN MILES
WCI  - WIND CHILL INDEX
HX   - HEAT INDEX
$$
NNNN




USA.gov is the U.S. government's official web portal to all federal, state and local government web resources and services.